FLOCK 2K-26

Last updated on Wed Feb 14 2018 16:20:53 GMT+0000 (Coordinated Universal Time)

1 42883U 17042BL 18045.42359133 .00004844 00000-0 14194-3 0 9999 2 42883 96.9928 308.2768 0012486 177.0321 183.1000 15.35575595 32790
UTC large
Height (km)
Speed (km/s)
/
Latitude / Longitude
Inclination (degrees)
Orbital Period (minutes)
Azimuth
Elevation
Range (km)
Doppler Factor

Next 0 passes for location: London (51.5072 / 0.1276)

Sorry there are no passes over London.
FLOCK 2K-26